[[{"header":{"parameterUnit":"m.s-1","parameterCategory":1,"la1":30.2991,"la2":30.254,"lo1":-89.0895,"lo2":-89.0444,"dy":0.0017,"dx":0.0017,"nx":28,"ny":28,"refTime":"2025-03-25T09:00:00:Z","depth":0,"parameterNumber":2,"parameterNumberName":"U-component_of_WINDS"},"data":[0,0,0,0,0,0,0,0,0,0,0,0,0,0,0,0,0,0,0,0,0,0,0,0,0,0,0,0,0,0,0,0,0,0,0,0,0,0,0,0,0,0,0,0,0,0,0,0,0,0,0,0,0,0,0,0,0,0,-1.8131,-1.8131,0,-1.8172,-1.8172,-1.8173,-1.8265,-1.8267,-1.8269,-1.8271,-1.8311,-1.831,-1.8309,0,0,0,0,0,0,0,0,0,0,0,0,0,-1.8133,-1.8132,-1.8131,-1.8131,-1.8132,-1.8172,-1.8172,-1.8173,-1.8265,-1.8267,-1.827,-1.8272,-1.8311,-1.831,-1.8309,0,0,0,0,0,0,0,0,0,0,0,0,0,-1.8148,-1.8132,-1.8131,-1.8183,-1.8188,-1.8171,-1.8172,-1.8173,-1.8265,-1.8267,-1.827,-1.8273,-1.8311,-1.831,-1.8309,-1.8245,0,0,-1.8306,-1.8305,0,0,0,0,0,0,0,0,-1.8147,-1.8148,-1.8175,-1.8179,-1.8185,-1.8216,-1.8187,-1.8197,-1.8264,-1.8235,-1.8271,-1.8274,-1.8277,-1.8279,-1.828,-1.8247,-1.8249,-1.8306,-1.8305,-1.8305,-1.8304,0,0,0,0,0,0,0,-1.8146,-1.8147,-1.8147,-1.8175,-1.8181,-1.8204,-1.8209,-1.819,-1.8239,-1.8238,-1.8245,-1.8249,-1.828,-1.8281,-1.8282,-1.8249,-1.8306,-1.8305,-1.8304,-1.8304,-1.8167,-1.8164,0,0,0,0,0,0,-1.8138,-1.8145,-1.8146,-1.8148,-1.8173,-1.8202,-1.8208,-1.8203,-1.824,-1.8248,-1.8246,-1.8253,-1.8281,-1.8283,-1.8284,-1.8212,-1.8305,-1.8304,-1.8303,-1.817,-1.8167,-1.8163,0,0,0,0,0,0,-1.8137,-1.8137,-1.8144,-1.8149,-1.8151,-1.8199,-1.8193,-1.8203,-1.8203,-1.8246,-1.8255,-1.8238,-1.8284,-1.8285,-1.8254,-1.8215,-1.8303,-1.8302,-1.8174,-1.8169,-1.8165,-1.8067,0,0,0,0,0,0,-1.8137,-1.8136,-1.8112,-1.8147,-1.8151,-1.8114,-1.819,-1.8201,-1.8202,-1.8211,-1.8241,-1.8248,-1.8286,-1.8256,-1.8253,-1.8215,-1.8301,-1.8177,-1.8172,-1.8166,-1.8074,-1.806,-1.8048,0,0,0,0,0,-1.8137,-1.8082,-1.811,-1.811,-1.8122,-1.8111,-1.8113,-1.8158,-1.8198,-1.8174,-1.8202,-1.8247,-1.8219,-1.8252,-1.825,-1.821,-1.818,-1.8173,-1.8167,-1.808,-1.8063,-1.8048,0,0,0,0,0,0,-1.804,-1.8088,-1.8119,-1.8075,-1.8088,-1.8127,-1.8099,-1.8138,-1.8141,-1.8149,-1.8205,-1.821,-1.8172,-1.8189,-1.8224,-1.8151,-1.8207,-1.82,-1.8142,-1.8126,-1.8113,-1.811,-1.83,0,0,0,0,0,-1.8013,-1.8001,-1.8044,-1.8,-1.8006,-1.8051,-1.8048,-1.8082,-1.8098,-1.8104,-1.8129,-1.8143,-1.8138,-1.8133,-1.813,-1.8077,-1.8086,-1.8049,-1.8036,-1.8025,-1.8018,-1.7993,-1.7978,-1.8141,-1.8141,-1.8142,0,0,-1.7958,-1.7983,-1.7972,-1.7981,-1.7996,-1.7982,-1.8055,-1.8037,-1.8027,-1.8101,-1.8074,-1.8093,-1.8112,-1.8071,-1.8054,-1.8083,-1.7975,-1.8017,-1.8007,-1.8007,-1.7985,-1.7969,-1.7955,-1.8137,-1.8138,-1.8138,0,0,-1.7851,-1.7868,-1.7835,-1.7848,-1.787,-1.7901,-1.7892,-1.7926,-1.7941,-1.7916,-1.7971,-1.796,-1.7949,-1.7961,-1.7966,-1.7865,-1.7907,-1.7862,-1.7794,-1.7769,-1.7756,-1.7745,-1.771,-1.7696,-1.7855,-1.7855,-1.7855,0,-1.778,-1.7762,-1.7812,-1.7792,-1.7795,-1.7862,-1.7828,-1.7839,-1.7858,-1.7858,-1.7891,-1.788,-1.7897,-1.786,-1.7836,-1.7837,-1.783,-1.7859,-1.7754,-1.7743,-1.7733,-1.7701,-1.7687,-1.785,-1.785,-1.7851,-1.7851,0,-1.7674,-1.7661,-1.7631,-1.7649,-1.7649,-1.7621,-1.7668,-1.7662,-1.7696,-1.7723,-1.7696,-1.772,-1.7724,-1.7718,-1.775,-1.7685,-1.7703,-1.7744,-1.7801,-1.7711,-1.7682,-1.767,-1.7842,-1.7844,-1.7845,-1.7847,0,0,-1.7506,-1.7554,-1.7542,-1.7552,-1.7581,-1.7572,-1.7548,-1.7553,-1.7547,-1.7558,-1.754,-1.753,-1.7569,-1.7574,-1.7608,-1.7586,-1.7507,-1.763,-1.7632,-1.7607,-1.7439,-1.7408,-1.7393,-1.7535,-1.7533,-1.7531,-1.7437,0,-1.7407,-1.737,-1.7415,-1.7368,-1.7357,-1.7421,-1.7401,-1.7417,-1.7442,-1.7436,-1.7464,-1.7457,-1.7507,-1.7511,-1.7492,-1.752,-1.7474,-1.7528,-1.7519,-1.7518,-1.7513,-1.7377,-1.7345,-1.7256,-1.7426,-1.7424,-1.7423,0,-1.7286,-1.7293,-1.7245,-1.7279,-1.7276,-1.7257,-1.7266,-1.726,-1.7279,-1.7299,-1.7305,-1.7348,-1.7327,-1.7383,-1.7356,-1.7392,-1.7391,-1.7405,-1.7403,-1.7404,-1.7465,-1.7376,-1.7228,-1.7215,-1.7405,-1.7406,-1.7407,0,-1.717,-1.7167,-1.7139,-1.7145,-1.7184,-1.7169,-1.7184,-1.7207,-1.7207,-1.7215,-1.7216,-1.7221,-1.7223,-1.7226,-1.7269,-1.7305,-1.7237,-1.7296,-1.7254,-1.7252,-1.7237,-1.7237,-1.7087,-1.7234,-1.7235,-1.7235,-1.7235,0,-1.7055,-1.7023,-1.7088,-1.707,-1.7037,-1.7089,-1.7055,-1.7077,-1.7097,-1.7085,-1.714,-1.7128,-1.7185,-1.7178,-1.7211,-1.7185,-1.7185,-1.7201,-1.7211,-1.7197,-1.7195,-1.7198,-1.7205,-1.7231,-1.7232,-1.7233,-1.7233,0,-1.692,-1.6962,-1.6935,-1.6974,-1.6984,-1.6958,-1.6991,-1.6977,-1.7006,-1.699,-1.699,-1.7035,-1.7031,-1.7074,-1.7077,-1.71,-1.7058,-1.7078,-1.7052,-1.7058,-1.7014,-1.7018,-1.6861,-1.6844,-1.7001,-1.6999,-1.6998,0,-1.6845,-1.6822,-1.6859,-1.6856,-1.6869,-1.6862,-1.6863,-1.6914,-1.6913,-1.6934,-1.6918,-1.6918,-1.6921,-1.6912,-1.6945,-1.6948,-1.6969,-1.6914,-1.697,-1.6958,-1.697,-1.6971,-1.697,-1.6903,-1.6901,-1.6899,-1.6898,0,-1.6706,-1.6728,-1.6728,-1.6735,-1.6736,-1.6744,-1.6755,-1.6749,-1.6804,-1.68,-1.6797,-1.68,-1.6804,-1.6804,-1.6814,-1.6831,-1.6873,-1.688,-1.6871,-1.6857,-1.6843,-1.6851,-1.7021,-1.6883,-1.6885,-1.6886,-1.6887,-1.6887,-1.66,-1.6584,-1.6608,-1.6606,-1.6621,-1.663,-1.6619,-1.6647,-1.6646,-1.6654,-1.6684,-1.6676,-1.6697,-1.6716,-1.6728,-1.6722,-1.6749,-1.6735,-1.6732,-1.6728,-1.672,-1.6843,-1.6724,-1.6725,-1.6725,-1.6725,-1.6726,0,-1.6466,-1.6485,-1.6483,-1.6498,-1.6497,-1.6538,-1.6553,-1.6549,-1.6542,-1.6558,-1.6561,-1.6558,-1.6558,-1.6592,-1.6597,-1.6586,-1.6606,-1.6586,-1.6588,-1.6591,-1.6695,-1.6704,-1.657,-1.657,-1.657,-1.657,-1.657,-1.657,-1.6397,-1.6372,-1.6396,-1.6379,-1.6399,-1.6392,-1.6397,-1.6407,-1.642,-1.6415,-1.6416,-1.6438,-1.6462,-1.6469,-1.6472,-1.6482,-1.6482,-1.6455,-1.6472,-1.6568,-1.6584,-1.6598,-1.6606,-1.6454,-1.6454,-1.6368,-1.6367,-1.6367]},{"header":{"parameterUnit":"m.s-1","parameterCategory":1,"la1":30.2991,"la2":30.254,"lo1":-89.0895,"lo2":-89.0444,"dy":0.0017,"dx":0.0017,"nx":28,"ny":28,"refTime":"2025-03-25T09:00:00:Z","depth":0,"parameterNumber":3,"parameterNumberName":"V-component_of_WINDS"},"data":[0,0,0,0,0,0,0,0,0,0,0,0,0,0,0,0,0,0,0,0,0,0,0,0,0,0,0,0,0,0,0,0,0,0,0,0,0,0,0,0,0,0,0,0,0,0,0,0,0,0,0,0,0,0,0,0,0,0,-1.1915,-1.1917,0,-1.2087,-1.2089,-1.2091,-1.2275,-1.2277,-1.228,-1.2282,-1.2455,-1.2457,-1.2459,0,0,0,0,0,0,0,0,0,0,0,0,0,-1.1742,-1.1744,-1.1915,-1.1917,-1.1919,-1.2087,-1.2089,-1.2091,-1.2274,-1.2277,-1.2281,-1.2284,-1.2454,-1.2457,-1.2459,0,0,0,0,0,0,0,0,0,0,0,0,0,-1.1855,-1.1745,-1.1914,-1.2031,-1.2043,-1.2086,-1.2089,-1.2092,-1.2274,-1.2278,-1.2282,-1.2285,-1.2453,-1.2457,-1.246,-1.2401,0,0,-1.247,-1.2471,0,0,0,0,0,0,0,0,-1.1849,-1.1862,-1.2011,-1.2023,-1.2036,-1.2164,-1.2092,-1.2195,-1.2273,-1.2186,-1.2283,-1.2287,-1.2355,-1.2366,-1.239,-1.2409,-1.2417,-1.247,-1.2472,-1.2473,-1.2474,0,0,0,0,0,0,0,-1.1841,-1.1855,-1.1983,-1.2013,-1.2028,-1.2073,-1.2094,-1.2112,-1.2246,-1.2194,-1.2207,-1.2226,-1.2362,-1.2386,-1.2395,-1.2419,-1.247,-1.2473,-1.2475,-1.2476,-1.2401,-1.2398,0,0,0,0,0,0,-1.1816,-1.1847,-1.1977,-1.1988,-1.195,-1.2073,-1.2096,-1.2119,-1.2246,-1.227,-1.2222,-1.2233,-1.2379,-1.2391,-1.2402,-1.2343,-1.2473,-1.2476,-1.2478,-1.2405,-1.2401,-1.2396,0,0,0,0,0,0,-1.1811,-1.1825,-1.197,-1.1922,-1.1943,-1.2072,-1.2096,-1.212,-1.2144,-1.2268,-1.2292,-1.2222,-1.2382,-1.2397,-1.2401,-1.2352,-1.2478,-1.2481,-1.241,-1.2404,-1.2398,-1.2223,0,0,0,0,0,0,-1.1805,-1.1823,-1.1802,-1.192,-1.1945,-1.1966,-1.2093,-1.212,-1.215,-1.2166,-1.2274,-1.2296,-1.2387,-1.2395,-1.2404,-1.2358,-1.2483,-1.2415,-1.2407,-1.24,-1.2234,-1.2212,-1.2194,0,0,0,0,0,-1.1799,-1.1745,-1.18,-1.1815,-1.1923,-1.1963,-1.1978,-1.2084,-1.2145,-1.2125,-1.2205,-1.2293,-1.2355,-1.2394,-1.2405,-1.236,-1.2418,-1.2409,-1.2401,-1.2243,-1.2217,-1.2194,0,0,0,0,0,0,-1.1616,-1.1762,-1.1825,-1.1808,-1.1872,-1.1994,-1.1972,-1.2052,-1.2099,-1.2112,-1.2241,-1.2264,-1.2252,-1.2307,-1.2347,-1.2311,-1.24,-1.2393,-1.2276,-1.2251,-1.2231,-1.2218,-1.2486,0,0,0,0,0,-1.1574,-1.1596,-1.1722,-1.1695,-1.1724,-1.1842,-1.1864,-1.194,-1.2011,-1.2039,-1.2119,-1.2183,-1.2218,-1.2238,-1.2276,-1.2243,-1.227,-1.2218,-1.2197,-1.218,-1.2173,-1.216,-1.2139,-1.2367,-1.2367,-1.2368,0,0,-1.1487,-1.157,-1.1575,-1.166,-1.1719,-1.1738,-1.1863,-1.1878,-1.1893,-1.2041,-1.205,-1.211,-1.2191,-1.2176,-1.2173,-1.2221,-1.2116,-1.2169,-1.2154,-1.2156,-1.2149,-1.2127,-1.2108,-1.2361,-1.2362,-1.2363,0,0,-1.1339,-1.1403,-1.1389,-1.1445,-1.1533,-1.1612,-1.1608,-1.1719,-1.1765,-1.1777,-1.1888,-1.1908,-1.1964,-1.2018,-1.2052,-1.1925,-1.2008,-1.1934,-1.1828,-1.1814,-1.1796,-1.1781,-1.1736,-1.1719,-1.1926,-1.1926,-1.1925,0,-1.1219,-1.1254,-1.137,-1.1379,-1.1413,-1.1549,-1.1535,-1.1584,-1.1678,-1.1698,-1.1751,-1.1826,-1.189,-1.189,-1.1859,-1.1882,-1.1882,-1.1922,-1.179,-1.1776,-1.1763,-1.1722,-1.1704,-1.1916,-1.1917,-1.1918,-1.1919,0,-1.1103,-1.1125,-1.1102,-1.1192,-1.1224,-1.122,-1.1336,-1.1354,-1.1428,-1.1502,-1.1512,-1.1593,-1.1651,-1.1657,-1.1729,-1.1667,-1.1694,-1.1766,-1.1858,-1.173,-1.1693,-1.1678,-1.1903,-1.1906,-1.1909,-1.1911,0,0,-1.0843,-1.0999,-1.0989,-1.1033,-1.114,-1.1159,-1.1162,-1.1221,-1.1234,-1.1295,-1.13,-1.1346,-1.1414,-1.1453,-1.1532,-1.152,-1.1415,-1.1594,-1.1598,-1.1558,-1.1353,-1.1298,-1.1278,-1.1471,-1.1468,-1.1466,-1.1347,0,-1.0713,-1.0729,-1.0835,-1.0819,-1.0841,-1.0971,-1.0974,-1.104,-1.1109,-1.1137,-1.1213,-1.1244,-1.1331,-1.1355,-1.1349,-1.1429,-1.1376,-1.1439,-1.1477,-1.1477,-1.1452,-1.1259,-1.1201,-1.1085,-1.1333,-1.1331,-1.1329,0,-1.0564,-1.0619,-1.0605,-1.0715,-1.0728,-1.0729,-1.0792,-1.0817,-1.0894,-1.0946,-1.0989,-1.1079,-1.109,-1.1176,-1.1192,-1.1232,-1.1254,-1.1296,-1.1294,-1.1301,-1.1395,-1.1261,-1.105,-1.1032,-1.1308,-1.1309,-1.1311,0,-1.0377,-1.0446,-1.0448,-1.0481,-1.0608,-1.0606,-1.0658,-1.074,-1.0769,-1.0823,-1.0844,-1.0897,-1.0927,-1.0967,-1.1068,-1.1122,-1.1073,-1.1167,-1.1115,-1.1113,-1.1099,-1.1098,-1.0888,-1.1112,-1.1112,-1.1113,-1.1113,0,-1.0221,-1.0208,-1.0366,-1.0367,-1.0356,-1.0478,-1.0463,-1.0528,-1.06,-1.0616,-1.0731,-1.0743,-1.0877,-1.0904,-1.0983,-1.0985,-1.0997,-1.1038,-1.106,-1.1028,-1.1023,-1.1044,-1.1055,-1.1108,-1.1109,-1.111,-1.1111,0,-1.001,-1.0115,-1.0126,-1.0246,-1.0276,-1.0263,-1.0366,-1.0371,-1.0448,-1.0466,-1.0477,-1.0597,-1.0635,-1.0741,-1.0805,-1.0859,-1.0837,-1.0877,-1.0811,-1.0825,-1.0767,-1.0771,-1.0562,-1.0542,-1.0778,-1.0776,-1.0774,0,-0.9904,-0.9897,-1.0018,-1.0037,-1.0085,-1.0115,-1.0146,-1.0265,-1.0292,-1.0381,-1.0375,-1.0423,-1.0467,-1.0521,-1.0613,-1.0663,-1.0705,-1.0629,-1.0714,-1.0682,-1.0705,-1.0704,-1.0704,-1.061,-1.0607,-1.0604,-1.0602,0,-0.9704,-0.9757,-0.9798,-0.9857,-0.989,-0.9942,-1.0,-1.0009,-1.0143,-1.0167,-1.0208,-1.0243,-1.031,-1.0355,-1.042,-1.0474,-1.0559,-1.0575,-1.0566,-1.0533,-1.0495,-1.0516,-1.0761,-1.0579,-1.0581,-1.0583,-1.0584,-1.0585,-0.9543,-0.9544,-0.9629,-0.9671,-0.9727,-0.9779,-0.9791,-0.987,-0.9907,-0.9971,-1.0039,-1.0073,-1.0152,-1.0248,-1.0296,-1.0323,-1.0369,-1.0355,-1.0352,-1.0346,-1.0332,-1.0491,-1.0335,-1.0336,-1.0337,-1.0338,-1.0338,0,-0.935,-0.9412,-0.9449,-0.9528,-0.956,-0.9641,-0.9709,-0.9731,-0.9759,-0.9826,-0.9868,-0.9915,-0.996,-1.0056,-1.011,-1.0114,-1.0154,-1.0124,-1.0125,-1.0136,-1.0288,-1.0291,-1.009,-1.009,-1.009,-1.009,-1.009,-1.009,-0.9254,-0.926,-0.9322,-0.9358,-0.942,-0.9455,-0.9487,-0.9535,-0.959,-0.9638,-0.9676,-0.9739,-0.9818,-0.9879,-0.9924,-0.9951,-0.9965,-0.9921,-0.9961,-1.0101,-1.0125,-1.0147,-1.0151,-0.9924,-0.9923,-0.9807,-0.9806,-0.9805]}]]